User: anonymous   Login
Location: Theydon Bois
(51.6750°N, 0.1050°E)
Time: 20:14:48
(UTC+01:00)
Language:

ARGOS - Orbit

View from above orbital plane
View from above orbital plane
View from above satellite
View from above satellite

Ground track
Ground track

The orbit data is extracted from the following two-line orbital elements,

1 25634U 99008A   18172.73629102 -.00000029  00000-0  64824-5 0  9996
2 25634  98.5666 229.5413 0009518 215.7864 144.2675 14.19335367   881
Epoch (UTC): 21 June 2018 17:40:15
Eccentricity: 0.0009518
inclination: 98.5666°
perigee height: 821 km
apogee height: 834 km
right ascension of ascending node: 229.5413°
argument of perigee: 215.7864°
revolutions per day: 14.19335367
mean anomaly at epoch: 144.2675°
orbit number at epoch: 88

The dashed part of the orbit path shows where the satellite is in the earth's shadow,  

DLR